Regional Weather Roundup
Issued by NWS

Home | Current Version | Previous Version | Text Only | Print | Product List | Glossary On
Versions: 1 2 3 4 5 6 7 8 9 10 11 12 13 14 15 16 17 18 19 20 21 22 23 24 25 26 27 28 29 30 31 32 33 34 35 36 37 38 39 40 41 42 43 44 45 46 47 48 49 50
000
ASUS43 KDMX 100907
RWRIA

WEATHER ROUNDUP FOR IOWA
NATIONAL WEATHER SERVICE DES MOINES IA
400 AM CDT THU JUL 10 2014

NOTE: "FAIR" INDICATES FEW OR NO CLOUDS BELOW 12,000 FEET WITH NO
SIGNIFICANT WEATHER AND/OR OBSTRUCTIONS TO VISIBILITY.

* - THESE STATIONS ARE NOT NWS STATIONS...THUS NOT UNDER NWS
QUALITY CONTROL.  THEY ALSO DO NOT REPORT WEATHER SUCH
AS PRECIPITATION OR FOG.

IAZ001>003-012>014-020>022-031>034-043>046-101000-
   NORTHWEST IOWA

CITY           SKY/WX    TMP DP  RH WIND       PRES   REMARKS
CARROLL *      MOCLDY    59  57  94 CALM      30.02F
CHEROKEE *     CLEAR     59  59 100 CALM      30.01F
DENISON *      CLOUDY    63  61  94 SE5       30.00F
LE MARS *      CLEAR     59  59 100 CALM      30.00F
ORANGE CITY *  CLEAR     64  57  77 CALM      30.01F
SHELDON *      PTCLDY    59  57  94 SE5       30.01S FOG
SIOUX CITY     CLEAR     62  60  93 E6        29.98F
SPENCER        CLEAR     59  57  93 S3        30.02S FOG
STORM LAKE *   CLEAR     59  59 100 SE5       30.03F FOG
$$

IAZ055>058-069>071-079>083-090>094-101000-
   SOUTHWEST IOWA

CITY           SKY/WX    TMP DP  RH WIND       PRES   REMARKS
ATLANTIC *     CLOUDY    64  59  82 S5        30.02S
AUDUBON *      CLEAR     59  55  88 CALM      30.04F FOG
CLARINDA *     MOCLDY    66  63  88 VRB5      30.03F
COUNCIL BLFS *   N/A     64  64 100 SE5       30.00S
CRESTON *      CLEAR     61  59  94 SE6       30.04F
HARLAN  *      CLEAR     63  61  94 CALM      30.04F
LAMONI         MOCLDY    65  60  84 SE8       30.05F
SHENANDOAH *   CLEAR     66  64  94 CALM      30.01F
$$

IAZ047>049-059>061-072>074-084-101000-
   CENTRAL IOWA

CITY           SKY/WX    TMP DP  RH WIND       PRES   REMARKS
AMES           CLEAR     62  59  90 CALM      30.04S
ANKENY *       CLEAR     61  59  94 S3        30.04F
CHARITON *     PTCLDY    61  57  88 S6        30.06S
DES MOINES     PTCLDY    65  58  78 S8        30.03F
GRINNELL*      CLEAR     61  57  88 S3        30.06F
KNOXVILLE *    CLEAR     63  57  82 S6        30.04F
MARSHALLTOWN   CLEAR     62  58  86 CALM      30.05S
PELLA *        CLEAR     61  57  88 SE5       30.06F
PERRY *          N/A     61  59  94 SE3       30.03F
$$

IAZ004>006-015-016-023>025-035-036-101000-
   NORTH CENTRAL IOWA

CITY           SKY/WX    TMP DP  RH WIND       PRES   REMARKS
ALGONA *       CLOUDY    66  63  88 S7        30.03S
CLARION *      MOCLDY    64  63  94 S6        30.04S
ESTHERVILLE    CLEAR     60  58  92 S6        30.02S FOG
FORT DODGE *   CLEAR     63  61  94 CALM      30.04F
MASON CITY     CLEAR     58  57  97 S5        30.05S FOG
FOREST CITY *  PTCLDY    57  57 100 CALM      30.04S FOG
IOWA FALLS *   MOCLDY    63  59  88 S5        30.06S
$$

IAZ007>011-017>019-026>030-037>042-050>054-066-101000-
   NORTHEAST IOWA

CITY           SKY/WX    TMP DP  RH WIND       PRES   REMARKS
CEDAR RAPIDS   CLEAR     59  56  89 SE5       30.06S
CHARLES CITY * PTCLDY    61  57  88 SE5       30.05F
CLINTON *      CLOUDY    61  57  88 E6        30.11S
DECORAH *        N/A    N/A N/A N/A MISG        N/A
DUBUQUE        CLOUDY    63  57  81 S8        30.09S
MONTICELLO *   PTCLDY    59  57  94 CALM      30.07S
OELWEIN *      CLEAR     59  59 100 SE5       30.07S
WATERLOO       PTCLDY    62  57  83 SE5       30.04S
$$

IAZ064-065-067-068-078-101000-
   EAST CENTRAL IOWA

CITY           SKY/WX    TMP DP  RH WIND       PRES   REMARKS
DAVENPORT      PTCLDY    61  56  83 SE6       30.08F
IOWA CITY      CLEAR     60  59  96 CALM      30.08S
MT. PLEASANT * CLEAR     57  55  94 CALM      30.08F
MUSCATINE *    CLEAR     59  55  88 CALM      30.08S
QUAD CITIES    CLEAR     61  56  83 CALM      30.08S
$$

IAZ062-063-075>077-085>089-095>099-101000-
   SOUTHEAST IOWA

CITY           SKY/WX    TMP DP  RH WIND       PRES   REMARKS
BURLINGTON     CLEAR     61  59  93 CALM      30.07F
FAIRFIELD *    CLEAR     61  57  88 S6        30.08S
FORT MADISON * CLEAR     64  61  88 S3        30.08F
KEOKUK *       CLEAR     61  59  94 CALM      30.07F
OSKALOOSA *    CLOUDY    61  59  94 S6        30.07S
CENTERVILLE *  CLEAR     59  59 100 S5        30.08S
OTTUMWA        CLEAR     61  57  87 S6        30.06F
WASHINGTON *   CLEAR     61  59  94 S5        30.07F
$$

ABBREVIATIONS USED IN REMARKS
   TC - TEMPERATURES IN CELSIUS
  WCI - WIND CHILL INDEX
   HX - HEAT INDEX
  VSB - VISIBILITY
$$




USA.gov is the U.S. government's official web portal to all federal, state and local government web resources and services.